Location: Treviso
(45.6669°N, 12.2430°E)
Time: 21:01:30
(UTC+02:00)

NOAA 15 - Pass Details

Date: 26 April 2019
Orbit: 798 x 812 km, 98.7° (Epoch: 25 May)

Event Time Altitude Azimuth Distance (km) Brightness Sun altitude
Rises 21:01:53 0° 218° (SW) 3,294 7.9 -8.8°
Reaches altitude 10° 21:05:37 10° 245° (WSW) 2,370 7.5 -9.4°
Maximum altitude 21:07:58 13° 272° (W) 2,170 7.9 -9.7°
Drops below altitude 10° 21:10:19 10° 299° (WNW) 2,379 8.7 -10.1°
Sets 21:14:06 0° 327° (NNW) 3,317 9.1 -10.6°
